Location: Peebles
(55.6412°N, 3.1714°W)
Time: 01:09:42
(UTC+01:00)

NAPA-1 - Pass Details

Date: 05 July 2022
Orbit: 525 x 528 km, 97.4° (Epoch: 14 August)

Event Time Altitude Azimuth Distance (km) Brightness Sun altitude
Exits shadow 23:56:08 - 211° (SSW) 2,447 ? -9.7°
Reaches altitude 10° 23:58:16 10° 229° (SW) 1,774 ? -9.8°
Maximum altitude 00:00:48 17° 271° (W) 1,397 ? -9.9°
Drops below altitude 10° 00:03:21 10° 313° (NW) 1,783 ? -10.0°
Sets 00:06:05 0° 334° (NNW) 2,678 ? -10.1°
